{"data":{"norad_id":52888,"epoch":"2026-05-25T02:52:44.200992Z","epoch_age_seconds":54789,"freshness":"FRESH","line1":"1 52888U 22064A   26145.11995603 -.00000097  00000+0  36807-4 0  9991","line2":"2 52888  51.9969 132.6790 0000246 325.5412  34.5438 12.62268789188223","mean_motion":12.62268789,"eccentricity":2.46e-5,"inclination_deg":51.9969,"raan_deg":132.679,"arg_perigee_deg":325.5412,"mean_anomaly_deg":34.5438,"bstar":3.6807e-5,"rev_number":18822,"period_min":114.08029831276,"perigee_km":1413.4022287752,"apogee_km":1413.7855819358,"semimajor_km":7791.7309053555,"source":"CELESTRAK","updated_at":"2026-05-25T13:38:23.047432Z"}}